Regional Weather Roundup
Issued by NWS

Home | Current Version | Previous Version | Text Only | Print | Product List | Glossary On
Versions: 1 2 3 4 5 6 7 8 9 10 11 12 13 14 15 16 17 18 19 20 21 22 23 24 25 26 27 28 29 30 31 32 33 34 35 36 37 38 39 40 41 42 43 44 45 46 47 48 49 50
000
ASUS42 KKEY 241910
RWRKEY

FLORIDA REGIONAL WEATHER ROUNDUP FOR THE FLORIDA KEYS
NATIONAL WEATHER SERVICE KEY WEST FLORIDA
300 PM EDT SUN MAY 24 2015

...SOUTH FLORIDA AND THE KEYS...

CITY           SKY/WX    TMP DP  RH WIND       PRES   REMARKS
FORT MYERS     MOSUNNY   92  66  42 VRB7      30.12F HX  94
SW REGIONAL AP MOSUNNY   90  65  43 E15       30.12F HX  92
NAPLES         MOSUNNY   92  69  47 E13       30.11F HX  97
MIAMI          PTSUNNY   85  73  67 E10G23    30.15S HX  91
WEST KENDALL   MOSUNNY   89  71  55 E17       30.13F HX  95
HOMESTEAD      SUNNY     86  73  64 E17       30.13F HX  94
MARATHON       MOSUNNY   89  75  63 E10G20    30.11F HX  99
BOCA CHICA NAS MOSUNNY   88  74  63 E17       30.11F HX  96
KEY WEST INTL  SUNNY     87  75  67 E16       30.12S HX  96

...INTERNATIONAL WEATHER...

CITY           SKY/WX    TMP DP  RH WIND       PRES   REMARKS
NASSAU BAHAMAS MOSUNNY   84  75  74 E14       30.14F HX  92
CANCUN MEXICO  PTSUNNY   88  73  62 SE17      30.04S HX  96
COZUMEL MEXICO PTSUNNY   86  72  62 SE5       30.02F HX  92

ADJACENT COASTAL WATERS...

STATION/POSITION TIME  SKY/WX   TEMP    WIND        PRES    WAVE
                                AIR SEA DIR/SP/G            HT/PER
                 (UTC)          (F)     (DEG/KT/KT) (MB)    (FT/S)
PULASKI SHOAL LI 1800            83     120/ 14/ 15 1019.8F
SAND KEY         1850            82      90/ 17/ 18 1019.5F
SOMBRERO KEY     1900            83      90/ 17/ 18 1020.0F
LONG KEY         1800            82 85  110/ 14/ 16 1021.1F
MOLASSES REEF    1900            81 84   80/ 15/ 17 1019.8F
FOWEY ROCKS      NOT AVBL

$$


USA.gov is the U.S. government's official web portal to all federal, state and local government web resources and services.